This is the latest recevied weather packets stored in our database for station/object W9WRP. If no packets are shown the sender has not sent any weather packets the latest 10 day(s).
| Time | Temp. | Humidity | Pressure | Rain* | Wind** | Luminosity | Snow |
|---|---|---|---|---|---|---|---|
| 1787596979 | 39.44° C | 23% | 1018 hPa | 0 mm | - | 702 W/m² | - |
| 1787596675 | 38.33° C | 24% | 1018.1 hPa | 0 mm | - | 725 W/m² | - |
| 1787596370 | 37.78° C | 24% | 1018.1 hPa | 0 mm | - | 507 W/m² | - |
| 1787596066 | 38.33° C | 24% | 1018.2 hPa | 0 mm | - | 580 W/m² | - |
| 1787595762 | 38.33° C | 25% | 1018.3 hPa | 0 mm | - | 722 W/m² | - |
| 1787595457 | 37.78° C | 24% | 1018.6 hPa | 0 mm | - | 622 W/m² | - |
| 1787595152 | 37.78° C | 25% | 1018.5 hPa | 0 mm | - | 672 W/m² | - |
| 1787594846 | 37.78° C | 28% | 1018.2 hPa | 0 mm | - | 656 W/m² | - |
| 1787594541 | 37.78° C | 27% | 1018.3 hPa | 0 mm | - | 650 W/m² | - |
| 1787594240 | 36.11° C | 29% | 1018.6 hPa | 0 mm | - | 580 W/m² | - |
| 1787593935 | 36.67° C | 29% | 1018.6 hPa | 0 mm | - | 639 W/m² | - |
| 1787593630 | 36.11° C | 31% | 1018.8 hPa | 0 mm | - | 652 W/m² | - |
| 1787593325 | 36.67° C | 30% | 1018.8 hPa | 0 mm | - | 440 W/m² | - |
| 1787593020 | 36.11° C | 29% | 1018.7 hPa | 0 mm | - | 597 W/m² | - |
| 1787592715 | 35° C | 32% | 1018.7 hPa | 0 mm | - | 296 W/m² | - |
| 1787592414 | 35.56° C | 31% | 1018.7 hPa | 0 mm | - | 281 W/m² | - |
| 1787592110 | 35° C | 32% | 1018.7 hPa | 0 mm | - | 324 W/m² | - |
| 1787591805 | 35° C | 32% | 1018.8 hPa | 0 mm | - | 279 W/m² | - |
| 1787591500 | 35° C | 32% | 1018.7 hPa | 0 mm | - | 375 W/m² | - |
| 1787591196 | 34.44° C | 34% | 1018.6 hPa | 0 mm | - | 289 W/m² | - |
| 1787590887 | 34.44° C | 31% | 1018.6 hPa | 0 mm | - | 218 W/m² | - |
| 1787590587 | 34.44° C | 31% | 1018.6 hPa | 0 mm | - | 211 W/m² | - |
| 1787590281 | 33.89° C | 32% | 1018.5 hPa | 0 mm | - | 181 W/m² | - |
| 1787589977 | 33.89° C | 33% | 1018.7 hPa | 0 mm | - | 160 W/m² | - |
| 1787589668 | 33.33° C | 33% | 1018.6 hPa | 0 mm | - | 127 W/m² | - |
* Rain latest hour (hover to see other rain measurements)
** Current wind speed in m/s (hover to see current wind gust speed)